Regional Weather Roundup
Issued by NWS Raleigh/Durham, NC

Home | Current Version | Previous Version | Text Only | Print | Product List | Glossary On
Versions: 1 2 3 4 5 6 7 8 9 10 11 12 13 14 15 16 17 18 19 20 21 22 23 24 25 26 27 28 29 30 31 32 33 34 35 36 37 38 39 40 41 42 43 44 45 46 47 48 49 50
000
ASUS42 KRAH 242010
RWRRAH
NORTH CAROLINA WEATHER ROUNDUP
NATIONAL WEATHER SERVICE RALEIGH NC
400 PM EDT THU JUL 24 2014

NOTE: "FAIR" INDICATES FEW OR NO CLOUDS BELOW 12,000 FEET WITH NO
SIGNIFICANT WEATHER AND/OR OBSTRUCTIONS TO VISIBILITY.

NCZ001-053-055-056-065-067-242100-
WESTERN NORTH CAROLINA

CITY           SKY/WX    TMP DP  RH WIND       PRES   REMARKS
ASHEVILLE      LGT RAIN  77  66  68 CALM      29.98S
JEFFERSON      PTSUNNY   79  59  49 W16       30.01S
MORGANTON      MOSUNNY  N/A N/A N/A CALM      29.95F
HICKORY        PTSUNNY   85  70  60 N6        29.89F
RUTHERFORDTON  MOSUNNY   83  71  68 SW5       29.91S
MOUNT AIRY     MOSUNNY   84  74  72 W3        29.88F
BOONE          MOSUNNY   78  59  50 NW12G17   30.02S
$$

NCZ021-022-025-041-071-084-088-242100-
CENTRAL NORTH CAROLINA

CITY           SKY/WX    TMP DP  RH WIND       PRES   REMARKS
CHARLOTTE      PTSUNNY   83  68  60 S8        29.89
GREENSBORO     PTSUNNY   88  68  51 SW8G18    29.86F
WINSTON-SALEM  MOSUNNY   87  65  47 W10       29.88F
RALEIGH-DURHAM RAIN      84  72  67 NE6       29.86F FOG
FORT BRAGG     MOSUNNY   92  71  50 W7        29.84F HX  99
FAYETTEVILLE   MOSUNNY   91  69  48 W12       29.84S HX  96
BURLINGTON     MOSUNNY   88  68  51 S8        29.85F
LAURINBURG     PTSUNNY   86  70  58 SW10      29.87S
$$

NCZ011-015-027-028-043-044-047-080-103-242100-
NORTHEASTERN NORTH CAROLINA

CITY           SKY/WX    TMP DP  RH WIND       PRES   REMARKS
ROCKY MT-WILSO MOSUNNY   85  71  63 E5        29.86F
GREENVILLE     MOSUNNY   79  73  83 SE3       29.90S
WASHINGTON     CLOUDY    75  73  91 CALM      29.89R
ELIZABETH CITY PTSUNNY   80  69  69 CALM      29.88S
MANTEO         NOT AVBL
CAPE HATTERAS  LGT RAIN  75  73  93 SW6       29.89S
$$

NCZ078-087-090-091-093-098-101-242100-
SOUTHEASTERN NORTH CAROLINA

CITY           SKY/WX    TMP DP  RH WIND       PRES   REMARKS
LUMBERTON      MOSUNNY   84  73  69 W13G24    29.85S THUNDER
GOLDSBORO      LGT RAIN  75  75  99 VRB1      29.86F
KINSTON        LGT RAIN  79  77  94 CALM      29.88S
KENANSVILLE    MOSUNNY   81  71  71 N7        29.87S
NEW BERN       CLOUDY    76  72  87 SW3       29.89R
CHERRY POINT   NOT AVBL
BEAUFORT       HVY RAIN  73  71  93 NE8       29.91R VSB 1/4
JACKSONVILLE   TSTM      76  73  91 W7        29.86S
WILMINGTON     MOSUNNY   91  76  61 SW9       29.85F HX 103
$$



USA.gov is the U.S. government's official web portal to all federal, state and local government web resources and services.